• MPC Preparation (Info)

  • MPEC 2023-O75 : 2023 OV1

    The following Minor Planet Electronic Circular may be linked-to from your own Web pages, but must not otherwise be redistributed electronically.

    A form allowing access to any MPEC is at the bottom of this page.


    Read MPEC 2023-O74 Read MPEC 2023-O76


    M.P.E.C. 2023-O75                                 Issued 2023 July 25, 11:55 UT
    
         The Minor Planet Electronic Circulars contain information on unusual
             minor planets, routine data on comets and natural satellites,
             and occasional editorial announcements.  They are published
        on behalf of Division F of the International Astronomical Union by the
              Minor Planet Center, Smithsonian Astrophysical Observatory,
                              Cambridge, MA 02138, U.S.A.
    			  
                 Prepared using the Tamkin Foundation Computer Network
    
                                  MPC@CFA.HARVARD.EDU
                URL https://www.minorplanetcenter.net/    ISSN 1523-6714
    
                                    2023 OV1                                 
    
    
    Observations:
         K23O01V* C2023 07 23.05038923 27 14.050-60 15 50.54         17.89cVEO075M22
         K23O01V  C2023 07 23.05220423 27 06.996-60 16 40.37         17.91cVEO075M22
         K23O01V  C2023 07 23.05597523 26 52.054-60 18 25.88         17.70cVEO075M22
         K23O01V  C2023 07 23.07770923 25 27.576-60 28 09.98         17.57cVEO075M22
         K23O01V  C2023 07 23.16586 23 19 57.50 -61 03 30.9                VEO075M28
         K23O01V  C2023 07 23.16746 23 19 51.88 -61 04 05.4                VEO075M28
         K23O01V  C2023 07 23.16904 23 19 46.23 -61 04 39.8                VEO075M28
         K23O01V  C2023 07 23.17060 23 19 40.66 -61 05 13.3                VEO075M28
         K23O01V  V2023 07 23.19089923 20 19.32 -61 11 25.7                WEO075247
         K23O01V  v2023 07 23.1908991 289.1467   -30.5263    1710           EO075247
         K23O01V  V2023 07 23.19516823 20 04.59 -61 13 12.3                WEO075247
         K23O01V  v2023 07 23.1951681 289.1467   -30.5263    1710           EO075247
         K23O01V  V2023 07 23.19730323 19 57.06 -61 14 05.6                WEO075247
         K23O01V  v2023 07 23.1973031 289.1467   -30.5263    1710           EO075247
         K23O01V 1C2023 07 23.32749223 12 34.236-62 01 55.64         18.0 GVEO075W57
         K23O01V 1C2023 07 23.33061723 12 23.913-62 02 54.84         18.0 GVEO075W57
         K23O01V 1C2023 07 23.33330223 12 15.092-62 03 45.79         18.2 GVEO075W57
         K23O01V KC2023 07 24.95703 22 24 04.05 -66 12 25.3          19.4 GVEO075M21
         K23O01V  V2023 07 24.96029822 24 14.01 -66 06 28.5                WEO075247
         K23O01V  v2023 07 24.9602981 289.1467   -30.5263    1710           EO075247
         K23O01V  V2023 07 24.96382022 24 10.35 -66 06 48.4                WEO075247
         K23O01V  v2023 07 24.9638201 289.1467   -30.5263    1710           EO075247
         K23O01V  V2023 07 24.96734322 24 06.93 -66 07 09.0                WEO075247
         K23O01V  v2023 07 24.9673431 289.1467   -30.5263    1710           EO075247
         K23O01V KC2023 07 24.98006 22 23 31.65 -66 14 22.3                VEO075M21
    
    Observer details:
    247 Roving Observer.  Observers A. Schnabel, D. Ruhela.  Measurer S. Deen.
        0.43-m reflector + CCD.
    M21 Schiaparelli Southern Observatory, Hakos.  Observers A. Aletti, F.
        Bellini, L. Buzzi, G. Galli.  Measurer L. Buzzi.  0.36-m f/8.4 reflector +
        CCD.
    M22 ATLAS South Africa, Sutherland.  Observers L. Denneau, R. Siverd, J.
        Tonry, H. Weiland.  Measurers L. Denneau, N. Erasmus, A. Fitzsimmons, A.
        Lawrence, J. Robinson, R. Siverd, J. Tonry, H. Weiland.  0.5-m Reflector +
        CCD.
    M28 Lesedi Telescope-SAAO Observatory, Sutherland.  Observers N. Erasmus, S.
        Potter, C. van Gend, S. Chandra.  Measurers N. Erasmus, T. Ngwane.  1.0-m
        f/8 Reflector + CCD.
    W57 ESA TBT La Silla Observatory.  Observers L. Conversi, F. Ocana, M.
        Micheli, R. Kresken.  Measurers F. Ocana, M. Micheli.  0.56-m f/2.52
        astrograph prime-focus corrector + 4K CCD.
    
    Orbital elements:
    2023 OV1                                                 Earth MOID = 0.0006 AU
    Epoch 2023 Sept. 13.0 TT = JDT 2460200.5                Veres                   
    M  89.15425              (2000.0)            P               Q                  
    n   0.77325570     Peri.  100.11966     -0.73332545     +0.61249789             
    a   1.1755848      Node   118.30211     -0.67664133     -0.69980410             
    e   0.3008026      Incl.   19.58216     +0.06625928     -0.36758748             
    P   1.27           H   25.41          G   0.15           U   8                  
    Residuals in seconds of arc
    230723 M22  0.3-  0.5-    230723 M28  0.1+  1.4-    230724 M21  0.1-  0.8-
    230723 M22  0.5+  0.5+    230723 247  0.4+  0.9-    230724 247  0.3+  0.8-
    230723 M22  0.2-  0.1-    230723 247  0.1+  0.3-    230724 247  0.6-  0.2-
    230723 M22 (2.9+  3.7+)   230723 247  1.3-  0.3-    230724 247  0.1+  0.4-
    230723 M28  0.4-  1.5-    230723 W57  0.3-  0.2+    230724 M21  0.3+  0.9-
    230723 M28  0.4+  1.3-    230723 W57  0.0   0.3+
    230723 M28  0.2+  1.5-    230723 W57  0.4+  0.1-
    
    Ephemeris:
    2023 OV1                 a,e,i = 1.18, 0.30, 20                  q = 0.8220
    Date    TT    R. A. (2000) Decl.     Delta      r    Elong.  Phase     V
    2023 06 25    08 44 10.0 +67 03 42   0.2050  0.8973    49.6   120.4    26.6
    ...
    2023 07 10    08 43 54.8 +69 23 45   0.08859 0.9608    48.9   127.1    25.5
    ...
    2023 07 18    07 42 09.6 +70 06 06   0.02717 0.9987    48.9   129.9    23.3
    ...
    2023 07 24    22 46 49.6 -64 27 13   0.01960 1.0283   128.6    50.5    18.8
    2023 07 25    22 22 49.7 -66 12 25   0.02720 1.0332   129.2    49.6    19.5
    2023 07 26    22 07 48.1 -67 03 51   0.03484 1.0382   129.5    49.1    20.0
    ...
    2023 08 01    21 33 26.4 -68 13 47   0.08095 1.0682   129.3    47.3    21.9
    ...
    2023 08 09    21 20 06.6 -67 47 50   0.1429  1.1082   128.3    45.9    23.2
    ...
    2023 08 24    21 13 36.8 -65 18 41   0.2612  1.1813   125.2    44.4    24.6
    
    M. P. C. Staff               (C) Copyright 2023 MPC           M.P.E.C. 2023-O75
    


    Read MPEC 2023-O74 Read MPEC 2023-O76


    MPEC number:

    Enter an MPEC number in one of the following forms:

    • 1997-B01 (the full form)
    • J97B01 (the packed version of the full form)
    • B01 (the abbreviated form)